Location: Newark
(34.3481°N, 134.0494°E)
Time: 20:01:07
(UTC+00:00)

Vanguard 3 - Pass Details

Date: 27 January 2020
Orbit: 508 x 3263 km, 33.3° (Epoch: 19 February)

Event Time Altitude Azimuth Distance (km) Brightness Sun altitude
Rises 14:02:37 0° 286° (WNW) 6,832 12.2 -67.2°
Reaches altitude 10° 14:08:01 10° 281° (W) 5,483 11.5 -68.0°
Enters shadow 14:12:16 20° 273° (W) 4,401 10.9 -68.7°
